| time (UTC) | temp F | wind direction | speed knots | gust knots | rain 1hr in | rain 24hr in | rain mn in | humidity % | barometer mb |
| 20260507041510 | 45 | 309 | 0.0 | 1.7 | 0.00 | 0.13 | 0.01 | 95 | 1010.2 |
| 20260507040001 | 45 | 309 | 0.0 | 0.9 | 0.00 | 0.13 | 0.01 | 95 | 1010.1 |
| 20260507034601 | 45 | 309 | 0.0 | 0.9 | 0.00 | 0.14 | 0.01 | 95 | 1010.1 |
| 20260507033059 | 45 | 309 | 0.0 | 1.7 | 0.00 | 0.14 | 0.01 | 95 | 1010.0 |
| 20260507031557 | 45 | 309 | 0.0 | 0.9 | 0.00 | 0.14 | 0.01 | 95 | 1009.9 |
| 20260507030058 | 45 | 309 | 0.0 | 0.9 | 0.00 | 0.14 | 0.01 | 96 | 1009.8 |
| 20260507024556 | 45 | 309 | 0.0 | 1.7 | 0.00 | 0.18 | 0.01 | 96 | 1009.8 |
| 20260507023055 | 46 | 307 | 0.0 | 1.7 | 0.00 | 0.18 | 0.01 | 96 | 1009.8 |
| 20260507021553 | 46 | 307 | 0.0 | 1.7 | 0.00 | 0.18 | 0.01 | 96 | 1009.7 |
| 20260507014557 | 46 | 307 | 0.0 | 2.6 | 0.00 | 0.19 | 0.01 | 96 | 1009.4 |
| 20260507013050 | 46 | 307 | 0.0 | 1.7 | 0.00 | 0.19 | 0.01 | 96 | 1009.3 |
| 20260507011548 | 46 | 307 | 0.0 | 0.9 | 0.00 | 0.19 | 0.01 | 96 | 1009.2 |
| 20260507010058 | 46 | 307 | 0.0 | 4.3 | 0.01 | 0.19 | 0.01 | 96 | 1009.1 |
| 20260507004545 | 46 | 11 | 0.0 | 4.3 | 0.01 | 0.19 | 0.01 | 95 | 1009.0 |
| 20260507003043 | 46 | 285 | 0.0 | 2.6 | 0.01 | 0.19 | 0.01 | 95 | 1008.9 |
| 20260507001541 | 46 | 351 | 0.0 | 0.9 | 0.01 | 0.19 | 0.01 | 95 | 1008.9 |
| 20260507000042 | 46 | 355 | 0.0 | 1.7 | 0.00 | 0.18 | 0.00 | 95 | 1008.8 |
| 20260506234540 | 46 | 355 | 0.0 | 1.7 | 0.00 | 0.20 | 0.00 | 95 | 1008.8 |
| 20260506233039 | 46 | 355 | 0.0 | 1.7 | 0.00 | 0.20 | 0.00 | 95 | 1008.8 |
| 20260506231546 | 46 | 355 | 0.0 | 1.7 | 0.00 | 0.20 | 0.00 | 95 | 1008.8 |
| 20260506230050 | 46 | 355 | 0.0 | 2.6 | 0.00 | 0.20 | 0.00 | 95 | 1008.7 |
| 20260506224538 | 46 | 23 | 0.0 | 2.6 | 0.00 | 0.23 | 0.00 | 95 | 1008.6 |
| 20260506223032 | 47 | 24 | 0.0 | 1.7 | 0.00 | 0.23 | 0.00 | 95 | 1008.5 |
| 20260506221530 | 47 | 24 | 0.0 | 2.6 | 0.00 | 0.23 | 0.00 | 96 | 1008.4 |
| 20260506220035 | 47 | 22 | 0.0 | 3.5 | 0.00 | 0.23 | 0.00 | 96 | 1008.2 |
| 20260506214526 | 47 | 24 | 0.0 | 3.5 | 0.00 | 0.27 | 0.23 | 96 | 1008.1 |
| 20260506213024 | 47 | 92 | 0.0 | 2.6 | 0.00 | 0.27 | 0.23 | 95 | 1008.0 |
| 20260506211529 | 47 | 88 | 0.0 | 1.7 | 0.00 | 0.27 | 0.23 | 95 | 1007.9 |
| 20260506210025 | 47 | 286 | 0.9 | 3.5 | 0.00 | 0.27 | 0.23 | 95 | 1007.7 |
| 20260506204520 | 47 | 285 | 0.0 | 2.6 | 0.00 | 0.32 | 0.23 | 95 | 1007.6 |
| 20260506203018 | 47 | 250 | 0.9 | 4.3 | 0.00 | 0.32 | 0.23 | 95 | 1007.7 |
| 20260506201527 | 47 | 321 | 0.0 | 2.6 | 0.00 | 0.32 | 0.23 | 95 | 1007.6 |
| 20260506200015 | 47 | 321 | 0.0 | 2.6 | 0.00 | 0.32 | 0.23 | 95 | 1007.5 |
| 20260506194512 | 47 | 310 | 0.0 | 3.5 | 0.00 | 0.40 | 0.23 | 95 | 1007.4 |
| 20260506193010 | 47 | 311 | 0.0 | 2.6 | 0.00 | 0.40 | 0.23 | 95 | 1007.2 |
| 20260506191509 | 47 | 313 | 0.0 | 2.6 | 0.01 | 0.40 | 0.23 | 95 | 1007.0 |
| 20260506190012 | 47 | 323 | 0.0 | 1.7 | 0.01 | 0.40 | 0.23 | 95 | 1006.9 |
| 20260506184514 | 47 | 323 | 0.0 | 2.6 | 0.01 | 0.48 | 0.23 | 95 | 1006.7 |
| 20260506183002 | 47 | 9 | 1.7 | 7.0 | 0.01 | 0.48 | 0.23 | 95 | 1006.6 |
| 20260506181502 | 47 | 258 | 0.0 | 5.2 | 0.00 | 0.47 | 0.22 | 95 | 1006.5 |
| 20260506180100 | 47 | 252 | 0.0 | 4.3 | 0.00 | 0.47 | 0.22 | 94 | 1006.3 |
| 20260506174559 | 47 | 292 | 0.0 | 6.1 | 0.00 | 0.54 | 0.22 | 94 | 1006.2 |
| 20260506173059 | 48 | 293 | 0.0 | 4.3 | 0.01 | 0.54 | 0.22 | 94 | 1006.1 |
| 20260506171606 | 48 | 248 | 0.9 | 6.1 | 0.01 | 0.54 | 0.22 | 94 | 1006.0 |
| 20260506170056 | 48 | 308 | 0.0 | 4.3 | 0.01 | 0.54 | 0.22 | 94 | 1006.0 |
| 20260506164550 | 48 | 309 | 0.0 | 3.5 | 0.01 | 0.61 | 0.22 | 94 | 1005.9 |
| 20260506163047 | 48 | 309 | 0.0 | 3.5 | 0.00 | 0.60 | 0.21 | 93 | 1005.8 |
| 20260506161546 | 49 | 309 | 0.9 | 2.6 | 0.00 | 0.60 | 0.21 | 93 | 1005.8 |
| 20260506160054 | 49 | 309 | 0.0 | 2.6 | 0.00 | 0.60 | 0.21 | 93 | 1005.7 |
| 20260506154540 | 49 | 309 | 0.0 | 3.5 | 0.00 | 0.63 | 0.21 | 93 | 1005.6 |
| 20260506153039 | 50 | 309 | 0.0 | 1.7 | 0.00 | 0.63 | 0.21 | 93 | 1005.6 |
| 20260506151541 | 50 | 259 | 0.9 | 4.3 | 0.00 | 0.63 | 0.21 | 94 | 1005.4 |
| 20260506150035 | 50 | 296 | 0.0 | 4.3 | 0.01 | 0.63 | 0.21 | 93 | 1005.3 |
| 20260506144546 | 50 | 302 | 0.0 | 4.3 | 0.01 | 0.63 | 0.21 | 93 | 1005.3 |
| 20260506143035 | 50 | 13 | 0.0 | 4.3 | 0.01 | 0.63 | 0.21 | 94 | 1005.1 |
| 20260506141532 | 50 | 80 | 0.0 | 2.6 | 0.02 | 0.63 | 0.21 | 94 | 1005.1 |
| 20260506140034 | 50 | 188 | 0.0 | 3.5 | 0.01 | 0.62 | 0.20 | 94 | 1005.0 |
| 20260506134529 | 51 | 97 | 0.9 | 3.5 | 0.01 | 0.62 | 0.20 | 94 | 1004.9 |
| 20260506133031 | 50 | 5 | 0.9 | 3.5 | 0.01 | 0.62 | 0.20 | 94 | 1004.9 |
| 20260506131527 | 50 | 158 | 0.0 | 2.6 | 0.01 | 0.61 | 0.20 | 94 | 1004.9 |
| 20260506130026 | 50 | 207 | 0.0 | 3.5 | 0.02 | 0.61 | 0.20 | 94 | 1004.7 |
| 20260506124528 | 51 | 292 | 0.0 | 3.5 | 0.02 | 0.61 | 0.20 | 94 | 1004.5 |
| 20260506123023 | 51 | 152 | 0.0 | 4.3 | 0.02 | 0.61 | 0.20 | 94 | 1004.4 |
| 20260506121522 | 51 | 243 | 0.9 | 4.3 | 0.01 | 0.61 | 0.19 | 94 | 1004.4 |
| 20260506120021 | 52 | 5 | 0.0 | 4.3 | 0.00 | 0.60 | 0.18 | 94 | 1004.3 |
| 20260506114533 | 52 | 170 | 0.0 | 4.3 | 0.00 | 0.60 | 0.18 | 94 | 1004.2 |
| 20260506113021 | 51 | 33 | 0.9 | 3.5 | 0.00 | 0.60 | 0.18 | 94 | 1004.2 |
| 20260506111519 | 52 | 238 | 0.0 | 1.7 | 0.00 | 0.60 | 0.18 | 94 | 1004.1 |
| 20260506110021 | 51 | 238 | 0.9 | 4.3 | 0.01 | 0.60 | 0.18 | 94 | 1004.0 |
| 20260506104519 | 52 | 11 | 0.0 | 2.6 | 0.01 | 0.60 | 0.18 | 95 | 1003.9 |
| 20260506103018 | 52 | 26 | 0.0 | 2.6 | 0.01 | 0.60 | 0.18 | 95 | 1003.8 |
| 20260506101519 | 52 | 302 | 0.9 | 6.1 | 0.01 | 0.60 | 0.18 | 95 | 1003.7 |
| 20260506100023 | 52 | 322 | 0.0 | 2.6 | 0.00 | 0.59 | 0.17 | 95 | 1003.5 |
| 20260506094517 | 52 | 322 | 0.0 | 4.3 | 0.00 | 0.59 | 0.17 | 96 | 1003.5 |
| 20260506093015 | 52 | 336 | 0.0 | 3.5 | 0.01 | 0.59 | 0.17 | 96 | 1003.4 |
| 20260506091518 | 52 | 335 | 0.0 | 4.3 | 0.01 | 0.59 | 0.17 | 96 | 1003.3 |
| 20260506090013 | 52 | 344 | 0.0 | 3.5 | 0.02 | 0.59 | 0.17 | 96 | 1003.2 |
| 20260506084511 | 51 | 342 | 0.0 | 2.6 | 0.02 | 0.59 | 0.17 | 96 | 1003.0 |
| 20260506083010 | 51 | 327 | 0.0 | 4.3 | 0.02 | 0.57 | 0.17 | 96 | 1003.0 |
| 20260506081510 | 51 | 327 | 1.7 | 5.2 | 0.02 | 0.57 | 0.17 | 96 | 1003.0 |
| 20260506073006 | 50 | 319 | 1.7 | 3.5 | 0.01 | 0.56 | 0.14 | 96 | 1002.8 |
| 20260506071505 | 50 | 319 | 0.9 | 3.5 | 0.02 | 0.56 | 0.14 | 96 | 1002.8 |
| 20260506061558 | 50 | 320 | 0.0 | 3.5 | 0.02 | 0.54 | 0.13 | 96 | 1002.5 |
| 20260506044549 | 50 | 320 | 0.0 | 3.5 | 0.01 | 0.53 | 0.11 | 96 | 1002.5 |
| 20260506043046 | 50 | 320 | 0.0 | 0.9 | 0.01 | 0.53 | 0.11 | 96 | 1002.5 |